Temperature
20 19 20 20 19 20 19 19 19 19 19 19 19 19 19 19 19 19 19 19 19 19 19 19 19 19 19 19 19 18 18 18 18 18 18 18 18 18 18 18 18 17 18
20 19 20 19 19 19 19 19 19 19 19 19 19 19 19 19 19 19 19 19 19 19 19 19 19 19 19 19 18 18 18 18 18 18 18 18 18 18 18 18 18 17 18
20 19 19 19 19 19 19 19 19 19 19 19 19 19 19 19 19 19 19 19 19 19 19 19 19 19 19 18 18 18 18 18 18 18 18 18 18 18 18 18 18 18 18
20 19 19 19 19 19 19 19 19 19 19 19 19 19 19 19 19 19 19 19 19 19 19 19 19 19 19 18 18 18 18 18 18 18 18 18 17 18 18 18 18 18 18
20 19 19 19 19 19 19 19 19 19 19 19 19 19 19 19 19 19 19 19 19 19 19 19 19 19 19 18 18 18 18 18 18 18 18 18 17 18 18 18 18 17 17
20 20 19 19 19 19 19 19 19 19 19 19 19 19 19 19 19 19 19 19 19 19 19 19 19 18 19 18 18 18 18 18 18 18 18 18 17 18 18 18 18 17 17
20 20 19 19 19 19 19 19 19 19 19 19 19 19 19 19 19 19 19 19 19 19 19 19 18 18 18 18 18 18 18 18 18 18 18 17 18 18 18 17 17 17 17
20 20 19 20 20 19 19 19 19 19 19 19 19 19 19 19 19 19 19 19 19 19 18 18 18 18 18 18 18 18 18 18 18 18 18 17 18 18 18 17 17 17 17
20 20 20 20 20 20 19 19 19 19 19 19 19 19 19 19 19 19 19 19 19 19 18 18 18 18 18 18 18 18 18 18 18 18 18 17 18 18 18 17 17 17 17
20 20 20 20 20 19 19 19 19 19 19 19 19 19 19 19 19 19 19 19 19 19 18 18 18 18 18 18 18 18 18 18 18 18 18 18 18 18 18 18 17 17 17
20 20 20 20 20 20 19 19 19 19 19 19 19 19 19 19 18 18 18 19 19 19 19 18 18 18 18 18 18 18 18 18 18 18 18 18 18 18 18 18 17 17 17
20 20 20 20 20 20 19 19 19 19 19 19 18 18 19 19 18 18 19 19 19 19 19 18 18 18 18 18 18 18 18 18 18 18 18 18 18 18 18 18 18 17 17
21 20 20 20 19 20 19 19 19 19 19 19 19 18 19 19 19 19 18 18 18 18 18 18 18 18 18 18 18 18 18 18 18 18 18 18 18 18 18 18 18 18 17
20 20 20 20 19 19 19 19 19 19 19 19 19 19 18 18 19 18 18 18 18 18 18 18 18 18 18 18 18 18 18 18 18 18 18 18 18 18 18 18 18 18 17
20 20 20 19 19 19 19 19 19 19 19 19 19 18 18 19 18 18 18 18 18 18 18 18 18 18 18 18 18 18 18 18 18 18 18 18 18 18 18 18 17 17 17
20 20 20 19 19 19 19 19 19 19 19 19 19 19 18 18 18 18 18 18 18 18 18 18 18 18 18 18 18 18 18 18 18 18 18 18 18 18 18 18 18 17 17
20 20 20 19 19 19 19 19 19 19 19 19 19 19 18 18 18 18 18 18 18 18 18 18 18 18 18 18 18 18 18 18 18 18 18 17 17 18 18 18 18 17 17
20 20 20 20 19 19 19 19 19 19 19 19 19 19 18 18 18 18 18 18 18 18 18 18 18 18 18 18 18 18 18 18 18 18 18 18 17 17 18 18 18 17 17
20 20 20 20 19 19 19 19 19 19 19 19 19 19 18 18 18 18 18 18 18 18 18 18 18 18 18 18 18 18 18 18 18 18 18 18 18 18 17 18 18 18 17
20 20 20 20 20 19 19 19 19 19 19 19 19 19 19 18 18 18 18 18 18 18 18 18 18 18 18 18 19 18 18 18 18 18 18 18 18 18 18 17 17 17 17
20 20 20 20 20 20 19 19 19 19 19 19 18 18 18 18 18 18 18 18 18 18 18 18 18 18 18 18 18 19 19 19 18 18 18 18 18 18 18 18 17 17 17
20 20 20 20 20 20 19 19 19 19 19 19 19 18 18 18 18 18 18 18 18 18 18 18 18 18 18 18 18 19 19 19 18 19 18 18 18 18 18 18 17 17 17
20 20 20 20 20 20 19 19 19 19 19 19 19 18 18 18 18 18 18 18 18 18 18 18 18 18 18 18 18 19 20 20 20 19 18 18 18 18 18 18 17 17 17
20 20 20 20 20 20 20 19 19 19 19 19 19 18 18 18 18 18 18 18 18 18 18 18 18 18 18 18 18 18 18 19 19 19 19 18 18 18 18 18 18 17 17
20 20 20 20 20 20 20 19 19 19 18 18 18 18 18 18 18 18 18 18 18 18 18 18 18 18 18 18 18 18 18 18 18 19 19 18 18 18 17 17 17 17 17
20 20 20 20 20 20 19 19 19 18 18 18 18 18 18 18 18 18 18 18 18 18 18 18 18 18 18 18 18 18 18 18 19 19 19 18 18 18 17 17 17 17 17
Wind_Speed
4 4 6 4 4 4 4 3 3 2 3 3 4 4 5 5 4 5 6 7 8 9 10 11 12 13 14 14 15 15 14 14 15 15 14 13 12 12 11 11 11 10 12
4 5 6 4 5 5 4 4 4 4 4 4 4 4 4 4 4 6 6 7 7 8 10 12 13 13 13 14 15 15 15 14 14 14 14 12 11 12 11 10 8 8 11
4 5 5 6 6 6 5 5 5 5 5 5 5 5 5 4 5 5 6 7 7 9 11 12 13 13 13 14 14 15 15 14 13 13 13 11 11 12 11 10 9 10 10
5 5 6 8 7 7 7 6 6 7 6 5 5 5 5 4 4 5 6 6 8 10 11 11 12 12 12 14 14 13 14 14 13 12 10 9 9 11 10 9 9 9 9
6 6 8 8 7 7 7 7 6 6 6 6 6 5 5 5 5 6 6 7 8 9 10 11 11 11 11 12 13 13 13 13 13 11 8 8 8 10 11 10 9 9 9
6 6 9 8 7 7 7 7 7 6 6 7 6 6 6 6 6 6 7 8 8 9 9 10 11 11 11 12 12 12 13 13 11 9 8 7 8 10 10 10 9 9 8
6 6 8 8 7 7 6 7 7 8 8 8 8 7 7 6 6 6 7 8 8 9 10 11 11 11 10 10 11 12 12 10 8 8 8 7 8 10 9 9 8 8 8
6 6 7 7 5 5 6 7 8 8 9 8 9 8 7 7 7 7 8 8 8 9 10 11 12 10 10 10 10 11 10 8 9 8 7 7 9 9 9 8 7 7 7
6 5 5 6 5 5 6 7 7 8 8 8 8 8 8 8 9 8 8 8 8 9 11 11 11 11 10 10 10 10 8 6 6 7 7 6 9 9 8 7 7 7 7
6 5 5 6 6 5 7 8 7 7 8 7 8 7 7 8 9 9 10 11 11 10 12 12 11 10 9 9 10 10 8 7 5 6 5 8 10 8 8 7 7 6 6
6 6 5 6 6 6 6 7 6 7 7 5 7 7 5 5 7 8 12 13 13 12 12 12 10 9 9 10 10 9 7 5 5 4 5 10 9 8 8 7 7 6 6
6 6 6 7 6 5 5 5 4 6 6 6 6 6 5 6 5 7 11 12 11 12 11 11 9 8 6 7 10 9 5 5 4 5 7 11 9 8 7 7 7 6 6
6 6 7 6 5 5 4 4 4 4 5 6 6 6 5 4 4 5 5 7 8 8 7 9 6 5 5 5 4 4 4 3 3 5 8 10 8 7 7 6 6 6 6
5 6 6 6 6 5 5 4 4 4 4 5 6 5 5 4 4 5 4 5 5 5 6 5 4 5 5 5 4 3 3 3 3 4 7 8 7 6 6 6 5 5 5
4 5 6 5 5 5 5 4 5 5 5 6 5 6 6 5 5 5 5 5 5 5 5 4 4 5 4 4 4 4 3 4 4 4 6 7 6 6 6 5 4 5 4
3 4 4 4 5 4 4 4 4 4 4 5 6 6 6 5 5 5 5 5 4 5 5 4 5 4 4 4 4 4 3 4 4 3 4 6 7 6 5 4 4 4 4
3 3 3 3 4 4 3 3 4 4 5 5 5 6 5 5 5 4 4 4 4 5 5 4 4 4 4 4 4 4 3 3 3 3 2 3 5 7 6 5 4 4 4
3 3 2 2 4 4 3 3 3 4 5 4 4 5 5 5 4 3 3 4 3 4 4 4 4 3 3 3 3 3 2 2 3 2 2 2 2 3 7 7 5 4 4
3 3 3 2 3 3 4 3 3 4 4 4 4 4 5 4 4 3 3 3 3 3 3 3 3 2 3 2 2 2 2 2 2 3 2 2 2 2 3 7 7 5 4
3 3 3 3 3 2 3 2 2 3 3 3 3 4 4 3 3 2 3 2 2 3 3 3 3 2 1 1 1 2 2 2 2 2 2 2 2 2 2 2 4 5 6
4 4 3 2 3 2 2 1 2 2 2 3 3 4 4 3 3 2 2 3 2 3 2 2 2 2 1 1 1 1 2 3 2 2 2 1 2 2 1 1 1 1 3
4 4 3 3 3 3 2 1 1 1 1 2 2 3 3 3 2 2 2 1 2 2 2 2 1 0 1 1 1 1 2 3 3 2 2 2 1 1 1 2 1 1 2
5 4 3 3 3 3 3 2 2 2 1 2 2 2 2 2 2 2 2 1 1 1 2 1 1 1 0 1 1 2 1 0 1 2 2 1 0 0 0 1 1 1 2
5 4 4 3 3 3 3 2 2 1 1 1 1 2 2 2 2 2 1 1 0 1 1 1 1 1 2 1 1 1 2 2 2 0 2 2 1 0 1 1 0 1 1
5 5 4 4 3 3 3 3 2 1 1 1 1 2 1 2 1 1 1 1 0 0 1 1 1 2 2 2 2 1 1 1 3 2 1 0 0 1 0 0 1 1 1
6 6 5 5 4 4 4 3 2 1 1 0 0 1 1 1 1 1 1 1 0 1 0 1 1 1 2 2 2 2 1 2 2 2 2 2 1 0 1 1 1 1 1
Wind_Direction
40 52 70 46 55 47 49 50 51 88 110 109 115 121 124 128 135 149 156 157 159 161 165 167 162 160 158 158 155 151 151 149 149 148 148 147 148 148 151 155 159 153 143
49 65 75 58 54 47 44 39 55 84 105 109 112 120 124 125 128 137 147 149 151 153 157 159 158 159 157 155 154 152 152 151 152 150 151 151 151 149 151 154 154 140 146
54 66 83 66 56 51 45 48 68 88 107 107 108 115 115 118 120 124 131 137 142 148 150 152 154 158 159 155 154 153 151 150 153 155 161 154 148 150 152 150 143 146 151
53 60 68 68 58 53 50 55 74 89 99 102 106 107 109 106 114 123 125 128 137 147 151 150 152 154 155 155 154 153 153 152 158 167 160 152 150 148 152 148 146 150 152
60 62 70 62 57 56 54 55 73 85 91 94 96 98 98 95 100 119 115 122 131 141 145 148 149 149 149 152 152 152 152 153 162 168 150 148 146 147 153 151 153 154 153
72 71 76 63 56 56 55 53 67 82 90 91 93 91 91 93 99 105 114 119 123 131 134 141 140 141 139 139 144 148 149 158 169 150 145 142 139 146 154 155 160 159 158
74 73 81 71 57 52 49 53 62 75 82 86 91 89 87 88 96 99 108 115 118 122 124 126 133 131 131 138 146 147 150 162 152 137 140 138 139 149 159 158 162 165 164
73 74 83 93 69 59 56 57 64 75 78 82 85 85 82 76 77 97 115 120 121 122 121 118 117 119 123 131 138 143 148 162 145 139 139 136 138 153 162 162 169 172 169
73 69 69 86 91 93 78 67 69 77 80 83 82 80 78 75 75 93 112 115 115 120 119 118 119 122 124 126 131 135 143 162 154 140 140 136 139 155 162 165 169 171 172
69 68 63 65 73 79 88 88 76 80 80 80 78 76 84 90 90 95 101 102 108 114 118 116 118 122 125 130 137 144 154 175 155 138 136 129 138 152 156 161 165 164 166
69 71 68 65 69 70 72 87 95 100 90 89 88 80 81 81 86 94 86 93 100 107 112 115 118 121 124 132 140 149 168 162 142 129 118 116 135 149 157 163 165 164 165
71 69 66 64 62 65 72 79 77 78 77 68 62 65 70 75 76 86 96 100 103 109 114 117 122 130 140 126 137 160 153 141 142 125 114 122 136 150 158 161 165 169 170
74 71 69 71 66 59 67 73 71 70 71 72 67 70 74 74 82 80 88 102 104 108 106 116 124 114 107 104 117 129 123 130 130 121 117 129 141 150 156 163 173 178 179
69 69 66 66 64 52 50 70 76 75 73 72 70 59 72 70 66 70 73 81 88 91 88 88 88 87 90 101 109 107 113 108 109 108 113 128 143 157 163 173 180 182 183
81 75 70 67 65 60 58 53 67 67 69 77 71 66 62 70 69 71 74 75 82 89 95 91 87 84 82 84 85 96 93 88 91 104 118 127 143 166 175 179 178 176 175
84 78 77 77 80 74 73 67 64 71 72 65 68 64 62 68 70 74 85 82 84 87 84 91 95 93 83 77 78 73 74 80 87 96 120 132 141 152 166 169 176 183 182
103 89 84 94 88 78 74 71 73 69 73 68 68 68 64 73 76 77 83 90 84 96 105 103 97 91 93 85 82 79 78 86 98 101 111 130 144 152 157 166 175 183 195
105 102 91 94 98 95 78 60 61 58 66 67 66 72 68 70 77 77 83 86 93 103 106 108 104 91 84 83 75 73 81 96 109 126 129 135 151 152 162 170 183 196 212
121 119 114 98 95 95 93 87 76 68 62 62 67 70 72 74 81 82 80 84 107 103 105 106 97 100 103 102 111 116 116 119 133 136 133 151 149 168 167 162 182 200 217
138 132 124 120 108 115 113 106 87 78 80 68 67 69 68 77 76 73 99 95 99 101 97 90 97 89 113 123 111 110 126 130 134 129 157 151 154 178 177 156 181 190 197
151 149 145 131 124 128 124 120 101 90 85 84 75 70 73 74 81 62 82 99 94 96 107 128 132 148 145 130 150 142 145 145 137 135 141 157 149 156 153 164 217 221 180
165 165 160 153 144 149 133 126 112 80 83 84 79 82 74 77 85 103 87 109 89 115 118 117 143 147 136 179 286 249 179 155 164 131 143 157 155 159 166 171 173 197 268
173 175 168 159 153 155 155 156 139 137 143 117 102 97 79 84 90 80 100 77 92 146 122 161 198 218 228 212 275 294 294 49 88 133 124 116 78 11 232 119 181 185 227
173 168 164 160 157 158 171 169 168 159 128 84 85 88 89 91 92 101 108 103 58 61 106 233 91 275 269 264 238 295 318 338 290 193 149 122 134 176 356 338 11 159 234
167 162 156 155 154 158 168 166 189 181 159 124 96 87 76 80 77 72 71 83 78 51 32 344 337 300 285 297 310 297 264 233 249 257 262 305 79 73 81 11 20 18 42
168 169 161 158 156 158 165 167 182 179 186 143 100 112 144 115 97 76 67 63 120 40 50 309 308 295 312 321 310 299 272 272 254 244 244 240 272 354 4 6 341 12 22
Height
1501 1499 1496 1495 1493 1491 1489 1487 1486 1485 1486 1487 1488 1489 1490 1489 1489 1489 1489 1491 1491 1492 1493 1494 1497 1499 1502 1506 1508 1511 1514 1516 1519 1521 1523 1525 1527 1529 1531 1532 1534 1536 1536
1502 1500 1497 1496 1494 1492 1489 1486 1484 1483 1485 1487 1488 1490 1490 1490 1490 1489 1489 1490 1491 1491 1491 1493 1496 1499 1503 1506 1509 1511 1514 1517 1519 1522 1524 1526 1528 1530 1531 1533 1534 1536 1536
1503 1501 1499 1497 1495 1492 1489 1486 1484 1483 1485 1487 1489 1490 1491 1491 1490 1490 1490 1490 1490 1491 1492 1494 1497 1500 1504 1507 1509 1512 1515 1517 1520 1522 1525 1527 1528 1530 1532 1533 1534 1535 1536
1505 1503 1501 1498 1496 1494 1491 1488 1487 1486 1488 1489 1490 1491 1491 1491 1491 1490 1490 1490 1491 1492 1493 1496 1498 1501 1505 1507 1510 1512 1515 1518 1520 1523 1525 1528 1529 1530 1532 1533 1534 1535 1536
1506 1504 1502 1500 1498 1496 1494 1491 1490 1489 1490 1491 1492 1492 1492 1492 1490 1490 1490 1491 1491 1493 1495 1497 1500 1503 1505 1508 1510 1513 1515 1518 1521 1523 1526 1528 1529 1530 1532 1534 1535 1536 1537
1507 1506 1504 1501 1500 1498 1496 1494 1493 1492 1493 1493 1494 1494 1494 1493 1492 1491 1491 1492 1493 1495 1496 1499 1501 1504 1506 1509 1511 1514 1516 1519 1522 1525 1527 1528 1530 1531 1532 1534 1535 1536 1537
1509 1507 1505 1503 1501 1500 1498 1497 1495 1495 1495 1495 1496 1496 1496 1494 1493 1492 1492 1494 1495 1496 1498 1500 1502 1505 1508 1510 1513 1515 1518 1520 1523 1526 1527 1529 1530 1531 1533 1534 1535 1536 1537
1510 1509 1506 1504 1503 1501 1501 1500 1499 1499 1498 1498 1499 1499 1497 1496 1492 1490 1491 1494 1496 1498 1500 1502 1504 1507 1509 1511 1514 1516 1519 1521 1524 1526 1528 1529 1530 1531 1533 1534 1535 1536 1537
1511 1510 1508 1507 1504 1503 1503 1502 1502 1502 1502 1502 1502 1501 1500 1498 1493 1490 1491 1493 1495 1498 1501 1504 1506 1508 1509 1512 1514 1517 1519 1522 1525 1527 1529 1530 1530 1531 1533 1533 1535 1536 1537
1512 1511 1510 1509 1507 1507 1506 1505 1505 1505 1505 1505 1505 1504 1503 1501 1499 1496 1495 1495 1496 1499 1502 1506 1509 1510 1511 1512 1514 1518 1521 1523 1526 1528 1529 1530 1530 1531 1532 1533 1534 1536 1536
1514 1513 1512 1511 1510 1509 1509 1508 1508 1508 1507 1507 1508 1507 1506 1506 1505 1504 1503 1501 1501 1503 1506 1509 1511 1513 1513 1513 1515 1519 1523 1526 1527 1529 1530 1530 1531 1532 1533 1533 1535 1535 1536
1516 1515 1514 1513 1512 1512 1511 1511 1511 1512 1511 1511 1510 1510 1510 1509 1509 1509 1508 1507 1508 1509 1510 1513 1514 1516 1517 1518 1520 1523 1526 1527 1529 1530 1530 1530 1531 1532 1533 1534 1535 1535 1536
1518 1518 1517 1516 1515 1514 1514 1514 1514 1514 1514 1514 1513 1513 1512 1512 1513 1513 1513 1513 1513 1514 1515 1517 1518 1520 1521 1522 1524 1526 1528 1529 1530 1531 1531 1531 1532 1532 1533 1534 1535 1535 1536
1520 1519 1519 1518 1517 1516 1516 1516 1517 1517 1517 1517 1516 1516 1515 1515 1515 1515 1516 1516 1517 1517 1518 1520 1521 1523 1524 1525 1526 1527 1529 1530 1531 1532 1531 1532 1532 1533 1534 1534 1535 1535 1536
1522 1522 1521 1520 1519 1518 1518 1518 1519 1519 1520 1520 1519 1518 1518 1518 1518 1518 1519 1519 1520 1521 1521 1522 1524 1525 1526 1527 1528 1529 1530 1531 1532 1533 1532 1532 1533 1533 1534 1534 1535 1535 1536
1524 1524 1523 1523 1522 1521 1521 1520 1521 1522 1521 1522 1522 1521 1521 1521 1521 1521 1522 1522 1523 1524 1524 1525 1526 1526 1527 1528 1529 1530 1531 1531 1532 1533 1533 1533 1533 1534 1534 1535 1535 1536 1536
1525 1525 1525 1524 1524 1523 1523 1524 1524 1524 1524 1524 1524 1524 1523 1523 1523 1523 1524 1524 1525 1526 1526 1527 1528 1529 1529 1530 1530 1530 1531 1532 1533 1533 1534 1534 1534 1534 1534 1535 1535 1535 1536
1526 1526 1526 1526 1525 1525 1525 1525 1526 1526 1526 1526 1526 1526 1525 1525 1525 1525 1526 1526 1527 1528 1528 1529 1530 1530 1531 1531 1531 1532 1532 1532 1533 1533 1534 1534 1535 1535 1535 1535 1535 1535 1535
1526 1526 1526 1526 1527 1527 1527 1527 1527 1527 1527 1527 1527 1527 1527 1527 1527 1527 1527 1528 1528 1529 1530 1530 1531 1531 1531 1532 1532 1532 1533 1533 1533 1534 1534 1534 1534 1534 1535 1534 1534 1534 1534
1526 1526 1527 1527 1527 1527 1528 1528 1528 1529 1529 1529 1529 1528 1528 1528 1528 1529 1529 1528 1530 1530 1530 1530 1530 1531 1532 1532 1533 1533 1533 1533 1533 1534 1534 1534 1534 1534 1535 1534 1534 1533 1533
1526 1526 1527 1527 1527 1527 1528 1529 1529 1530 1530 1530 1530 1529 1529 1529 1529 1529 1530 1530 1530 1531 1530 1531 1531 1531 1532 1532 1533 1533 1533 1533 1533 1533 1533 1533 1533 1533 1533 1533 1533 1533 1533
1526 1526 1527 1527 1527 1528 1528 1529 1529 1530 1530 1530 1530 1530 1530 1530 1530 1531 1530 1531 1531 1530 1530 1531 1531 1532 1532 1532 1533 1533 1533 1534 1533 1533 1533 1532 1533 1533 1533 1532 1532 1531 1532
1525 1526 1527 1527 1527 1528 1528 1529 1530 1530 1531 1531 1531 1531 1530 1530 1530 1530 1530 1531 1531 1531 1531 1530 1531 1531 1532 1532 1532 1533 1532 1531 1533 1533 1532 1532 1532 1532 1532 1532 1531 1531 1530
1524 1525 1526 1526 1527 1527 1528 1529 1530 1530 1531 1531 1531 1531 1531 1531 1531 1531 1531 1530 1531 1531 1530 1531 1531 1531 1531 1531 1531 1531 1532 1532 1532 1532 1532 1531 1531 1531 1531 1531 1531 1530 1529
1524 1525 1525 1526 1526 1527 1527 1528 1529 1530 1531 1531 1531 1530 1530 1530 1530 1531 1530 1530 1530 1530 1530 1529 1530 1530 1530 1531 1531 1531 1530 1530 1531 1531 1530 1531 1531 1530 1530 1529 1529 1529 1528
1523 1524 1525 1525 1526 1526 1527 1527 1528 1529 1529 1530 1530 1530 1530 1530 1530 1530 1530 1529 1529 1529 1529 1528 1528 1529 1529 1528 1529 1529 1530 1530 1530 1530 1529 1529 1529 1530 1529 1528 1528 1527 1526